Temperature
9 6 6 7 8 9 9 9 9 9 9 8 8 8 9 9 9 9 9 10 10 10 11 10 10 9 9 9 9 9 8 8 8 7 7 7 7 7 7 7 7 7 7 7
7 7 8 8 8 9 9 8 8 8 8 8 7 7 8 8 8 9 9 9 10 10 10 10 9 9 9 9 8 8 8 8 7 7 7 7 7 7 7 7 7 7 6 6
8 8 9 9 9 9 8 8 8 8 7 7 7 7 8 8 9 9 10 10 10 10 10 9 9 9 9 8 8 8 8 7 7 7 7 7 7 6 6 6 6 6 6 6
7 8 9 9 8 8 8 8 8 8 6 5 6 6 7 7 7 8 8 9 10 10 10 10 9 9 9 8 8 8 7 7 7 7 6 6 6 6 6 6 6 6 6 6
7 8 8 8 8 8 7 8 7 7 6 5 5 5 7 7 7 7 7 9 9 10 10 9 9 9 9 8 8 7 7 7 7 6 6 6 6 6 6 5 5 5 5 5
7 8 8 8 8 8 7 6 5 4 4 5 5 5 6 6 7 7 7 8 9 9 9 9 9 9 8 8 8 7 7 7 6 6 6 6 6 5 5 5 5 5 5 5
7 7 7 7 7 7 6 5 5 5 4 5 6 5 6 7 7 7 7 8 9 9 9 9 9 8 8 8 7 7 7 6 6 6 6 6 5 5 5 5 5 5 4 5
6 6 6 7 7 6 5 6 6 6 5 5 5 5 6 7 7 8 9 9 9 9 9 9 8 8 8 7 7 7 6 6 6 6 5 5 5 5 5 5 4 4 4 4
6 6 6 7 7 6 5 4 5 4 3 4 4 5 6 7 7 7 7 8 8 9 8 8 8 8 7 7 7 6 6 6 6 5 5 5 5 5 5 4 4 4 4 4
5 5 6 6 6 6 6 4 3 3 4 5 5 5 6 7 7 6 6 7 8 8 8 8 8 8 7 7 7 6 6 6 5 5 5 5 5 5 4 4 4 4 4 3
5 4 4 5 5 5 5 5 4 2 3 4 5 6 6 6 6 6 6 7 8 8 8 8 8 7 7 7 6 6 6 5 5 5 5 4 4 4 4 4 4 3 3 3
4 3 3 4 4 5 4 4 3 4 3 2 3 5 7 6 6 6 6 8 8 8 8 8 8 7 7 6 6 6 6 5 5 5 4 4 4 4 3 3 3 3 3 3
4 3 3 4 4 4 4 3 3 2 2 1 3 6 7 6 6 7 7 8 8 8 8 7 7 7 6 6 6 6 5 5 5 4 4 4 3 3 3 3 3 3 2 2
5 3 4 5 5 3 2 3 3 2 2 2 3 5 7 7 6 6 7 7 8 7 7 7 7 6 6 6 5 5 5 4 4 4 3 3 3 3 3 3 3 2 2 2
4 3 3 4 4 3 3 3 3 3 3 3 4 4 6 6 6 6 7 7 7 7 7 6 6 6 5 5 5 5 4 4 4 3 3 3 2 2 2 2 2 2 2 2
3 3 3 3 4 3 3 3 4 4 4 4 4 5 6 6 6 6 6 6 6 6 6 6 6 5 5 5 4 4 4 3 3 3 2 2 2 2 2 2 2 2 2 2
1 2 2 3 3 3 3 4 4 3 3 4 4 5 5 5 5 5 6 6 6 6 6 6 5 5 5 4 4 4 3 3 3 2 2 2 2 2 2 2 1 1 1 1
1 1 1 2 2 3 5 5 5 4 4 4 4 5 5 5 6 6 6 6 6 6 5 5 5 5 4 4 3 3 3 3 2 2 2 2 1 1 1 1 1 1 1 1
2 2 1 2 2 3 4 4 4 4 4 4 4 4 4 5 4 4 6 6 5 5 5 5 4 4 4 3 3 3 2 2 2 2 1 1 1 1 1 1 1 1 1 1
2 2 2 2 2 3 5 5 5 4 4 4 4 4 3 3 2 3 5 5 5 5 4 4 4 4 3 3 2 2 2 2 2 1 1 1 1 1 0 0 0 0 0 0
1 1 2 2 2 3 4 3 4 4 4 4 4 4 3 2 3 4 4 4 4 4 4 3 3 3 3 2 2 2 1 1 1 1 1 1 0 0 0 0 0 -0 -0 -0
1 1 1 1 2 3 3 2 3 3 4 4 4 4 4 4 4 4 4 3 3 3 3 3 3 2 2 2 1 1 1 1 1 1 0 0 0 0 -0 -0 -0 -0 -0 -1
1 1 1 1 3 3 3 3 4 4 4 4 4 4 4 3 3 3 3 3 2 2 2 2 2 2 2 1 1 0 0 0 0 -0 -0 -0 -0 -0 -1 -1 -1 -1 -1 -1
-0 0 0 0 1 2 3 4 4 4 4 4 4 3 3 2 2 2 2 2 2 2 2 2 1 1 1 1 0 0 -0 -0 -0 -1 -0 -1 -1 -1 -1 -1 -1 -1 -1 -2
0 -0 -0 0 1 1 2 3 3 3 3 3 3 3 2 2 2 2 1 1 1 1 1 1 1 1 0 0 0 -0 -0 -1 -1 -1 -1 -1 -1 -1 -1 -1 -2 -2 -2 -2
-0 -0 0 1 1 1 2 3 3 3 2 2 2 2 2 2 1 1 1 1 1 1 1 1 0 0 -0 -0 -0 -1 -1 -1 -1 -1 -2 -2 -2 -2 -2 -2 -2 -2 -2 -2
Wind_Speed
2 3 5 8 8 5 5 4 4 5 3 3 8 13 13 9 8 9 8 8 9 9 7 6 5 4 3 3 3 3 3 4 3 2 2 2 3 4 4 5 7 7 7 7
3 5 7 5 5 4 3 3 4 4 2 3 7 12 12 8 8 9 10 10 9 7 5 4 4 4 3 3 3 4 5 5 4 3 3 3 4 4 5 5 6 7 7 6
7 5 5 5 4 4 4 5 5 3 5 3 5 9 6 4 4 5 7 7 7 9 8 6 5 5 4 4 5 5 5 5 5 5 3 3 2 3 3 4 4 5 6 6
4 4 3 5 5 6 5 4 4 2 1 4 1 5 8 4 4 5 6 6 6 7 6 6 5 4 5 6 5 5 6 6 6 5 4 4 4 6 6 5 5 6 7 7
5 4 5 5 5 6 4 1 2 1 2 3 1 3 9 3 5 7 7 7 7 7 7 6 6 6 6 6 5 6 6 6 6 5 5 5 6 7 6 5 7 7 6 7
3 2 3 4 1 4 4 4 5 5 4 3 5 5 8 5 7 6 6 7 7 6 6 5 5 5 5 5 5 5 6 7 6 6 6 6 8 8 8 8 7 6 5 6
2 2 1 3 3 2 4 5 3 4 3 6 3 5 10 8 7 7 8 8 7 6 5 5 5 5 6 6 6 6 6 7 7 7 7 7 8 8 9 9 7 7 6 6
5 4 5 4 5 6 4 6 6 5 5 5 2 7 8 7 6 5 6 6 6 6 6 6 7 7 7 7 7 6 6 7 7 7 7 7 8 7 7 8 7 8 7 7
7 5 0 2 2 7 6 4 5 5 1 3 6 7 9 4 2 2 3 4 6 6 6 7 7 7 7 7 7 7 7 7 7 7 7 7 7 7 8 8 8 7 7 7
7 4 2 1 3 1 4 7 5 5 4 5 6 6 6 6 6 4 5 6 6 6 6 7 6 7 7 7 7 6 6 7 7 7 6 6 7 7 7 8 8 8 8 8
4 5 1 1 6 8 5 4 4 4 4 5 5 7 6 8 8 8 8 7 6 6 7 7 6 6 6 6 5 5 6 6 6 6 6 7 7 7 7 7 8 8 8 8
5 5 3 5 3 3 6 7 8 5 5 5 4 8 6 6 6 7 7 6 6 6 6 6 6 5 5 5 5 5 6 6 6 6 6 7 7 7 7 8 9 8 9 9
7 6 3 2 2 1 4 5 6 5 4 6 6 9 5 2 3 4 5 6 6 6 6 5 4 4 5 5 5 5 5 5 6 6 6 7 7 8 8 9 9 8 8 9
5 5 7 10 7 7 6 7 8 7 6 7 10 12 10 7 6 6 6 6 6 6 5 5 4 4 5 5 5 5 5 5 5 5 6 7 8 8 8 9 8 8 8 9
4 5 5 5 4 5 7 9 12 12 12 11 11 13 15 11 8 7 6 6 6 6 6 5 5 5 5 5 5 4 5 5 5 5 6 7 8 8 7 8 8 8 8 9
3 3 2 4 5 6 7 11 14 15 13 14 15 16 13 9 6 7 7 7 8 8 7 6 5 5 5 5 5 5 5 5 5 5 6 7 7 7 7 8 8 8 8 8
4 5 3 4 3 2 9 13 15 10 10 12 17 16 8 7 8 9 9 8 8 7 6 6 6 5 5 5 5 5 6 5 5 5 6 7 7 8 8 9 8 8 8 8
7 6 3 2 2 9 10 6 11 13 13 14 12 10 8 9 8 7 7 7 7 6 6 6 5 5 5 5 5 5 5 5 5 6 7 7 7 8 8 8 8 8 8 7
9 8 5 4 6 9 9 5 8 10 10 11 14 13 10 5 3 6 6 5 6 6 5 5 5 5 4 4 4 4 5 5 5 6 7 7 7 8 8 8 8 7 7 7
7 7 6 5 5 8 8 4 3 4 7 6 8 9 6 2 3 7 4 3 3 4 3 4 3 3 4 4 3 3 5 5 6 7 7 7 7 7 8 8 8 6 6 7
6 6 10 8 8 9 6 2 4 5 7 3 4 6 4 5 7 5 2 2 2 3 4 3 3 3 4 4 2 3 4 5 6 6 7 7 7 7 7 7 6 6 7 7
8 7 8 6 8 9 2 4 6 6 3 2 2 3 3 3 3 2 2 2 3 4 4 4 3 4 4 2 2 4 5 6 6 6 6 7 7 7 7 7 7 6 6 6
7 7 5 7 7 3 4 5 5 3 3 2 1 2 1 1 2 3 3 3 3 4 4 4 3 4 4 3 2 4 6 6 6 6 7 7 8 7 6 6 7 6 5 5
4 3 3 4 7 6 5 3 2 1 2 2 1 1 1 2 3 4 4 4 4 4 4 4 3 4 5 5 4 4 5 6 5 6 7 6 7 7 6 5 5 5 5 5
6 5 4 6 7 5 4 4 4 2 1 2 2 2 2 2 3 4 4 4 4 4 4 4 3 4 5 5 5 5 5 5 5 6 6 6 6 6 6 6 5 5 5 5
5 6 7 8 6 5 5 3 3 3 3 4 3 3 2 3 4 4 4 4 4 4 4 4 4 4 5 5 6 6 5 5 5 6 6 5 5 5 5 5 6 8 8 10
Wind_Direction
138 108 193 202 196 189 171 187 242 252 238 226 246 264 270 259 242 237 232 224 222 226 230 212 204 195 193 206 217 226 238 256 260 280 276 262 260 256 257 255 260 263 265 265
94 229 218 189 188 195 201 229 257 283 298 257 272 275 271 254 233 224 218 219 219 220 217 208 203 208 211 219 229 236 238 250 250 248 245 238 244 253 250 254 264 261 263 264
185 218 194 177 183 191 220 211 223 248 322 327 317 301 281 270 240 225 219 217 214 203 199 209 215 225 223 230 230 238 245 251 254 252 255 273 284 284 276 265 260 254 258 257
212 227 176 173 196 174 227 212 188 190 20 298 29 294 287 275 275 241 231 219 214 206 198 204 210 225 231 236 236 238 248 255 258 253 247 250 263 269 266 261 259 263 256 253
218 192 179 195 204 176 199 166 134 133 132 317 267 222 282 283 257 249 236 224 218 206 197 203 214 223 234 237 239 243 250 257 260 254 242 250 261 261 268 270 268 266 260 254
217 211 184 184 150 152 135 67 58 55 74 287 226 192 274 238 225 238 230 225 219 209 205 213 227 235 249 255 253 251 251 260 262 258 254 251 258 263 269 272 270 269 266 259
233 250 195 135 107 83 101 95 39 356 348 252 217 205 252 247 228 216 214 215 213 208 212 230 240 247 254 259 258 259 260 264 263 258 257 254 256 257 260 264 264 268 271 271
179 241 213 185 169 169 173 150 162 202 232 273 264 236 255 263 254 230 211 199 204 215 222 228 237 244 253 258 258 260 263 268 267 263 263 263 261 259 259 257 260 263 265 265
181 220 103 163 141 142 148 185 162 137 153 273 267 278 298 281 278 216 194 196 218 229 235 241 247 248 252 256 256 253 260 270 271 267 267 269 264 260 262 264 262 264 263 266
158 181 207 134 90 49 146 145 117 140 173 252 279 267 249 255 239 232 218 223 237 245 252 254 253 250 251 252 257 260 260 262 269 271 271 279 274 270 269 271 269 268 267 268
145 152 180 162 194 186 151 160 151 147 170 182 257 266 228 227 221 217 225 228 233 244 253 259 257 250 250 260 262 269 271 271 274 275 276 281 282 278 275 273 271 270 270 268
150 132 193 238 257 208 183 179 156 167 218 200 216 268 269 244 233 220 231 239 248 251 258 259 258 264 268 269 269 268 270 274 275 276 278 279 283 284 283 278 275 273 273 271
148 134 117 338 303 239 213 199 181 149 143 179 201 260 299 302 263 242 241 253 264 267 271 276 273 268 268 273 277 277 277 276 278 280 282 286 287 284 281 282 281 278 276 276
143 159 188 202 210 180 206 208 184 164 191 215 227 253 282 281 271 271 266 263 265 265 265 270 274 270 275 278 277 281 284 281 284 289 291 291 289 285 280 283 284 283 281 279
134 195 218 240 228 185 207 212 198 205 209 216 239 244 259 259 257 260 261 267 269 273 276 273 271 274 280 285 290 289 291 293 293 295 294 290 290 290 287 287 287 287 284 283
147 183 200 251 227 221 245 235 217 221 224 236 255 264 257 258 257 259 258 257 262 269 272 273 275 278 278 278 284 289 292 294 293 292 292 292 296 299 297 294 292 291 289 286
168 160 177 242 239 265 253 225 210 211 213 212 236 248 258 260 251 248 251 253 257 265 269 270 272 268 268 272 275 280 286 294 295 293 296 298 299 300 299 301 301 297 293 288
171 172 185 214 161 232 243 209 201 217 232 222 238 254 250 248 255 253 239 231 252 260 267 272 271 269 272 268 273 284 290 292 291 295 298 299 300 300 302 304 304 301 297 292
186 177 186 195 227 264 279 237 192 204 249 232 237 254 256 259 298 286 259 239 245 259 268 270 267 270 277 277 279 290 294 295 294 295 296 297 298 301 304 305 305 306 305 301
182 185 192 198 214 236 247 240 183 147 262 250 228 246 249 167 246 270 283 288 280 289 288 284 285 295 290 290 288 292 292 295 294 293 294 297 298 300 302 302 302 304 304 300
181 202 215 217 228 252 262 258 127 178 249 285 234 236 217 201 225 248 285 317 313 310 303 307 308 301 288 290 292 298 302 295 291 296 300 302 302 300 299 302 304 308 307 307
184 193 204 200 222 244 231 130 181 228 273 281 268 251 232 233 251 274 295 310 322 322 324 329 329 315 312 318 317 303 299 298 304 307 306 305 306 307 312 308 307 308 309 308
200 196 193 199 222 256 189 207 234 225 227 234 241 267 218 261 274 289 294 300 307 309 315 321 317 316 320 324 322 302 300 303 307 312 311 311 313 313 313 309 310 313 312 307
241 194 188 243 261 267 255 244 268 240 229 247 204 194 194 259 282 294 295 300 305 307 306 313 317 318 317 318 313 295 299 307 310 313 314 315 318 319 321 320 317 315 313 309
213 184 202 242 261 283 276 240 237 252 222 239 257 248 235 241 271 279 287 293 296 302 307 310 308 310 310 316 316 315 315 320 318 315 314 316 316 315 324 327 322 316 308 298
208 198 206 234 226 215 247 244 224 219 232 230 235 270 273 243 256 274 286 293 299 305 309 316 315 312 313 317 318 320 320 320 316 316 315 314 314 315 318 323 328 329 322 318
Height
1482 1487 1488 1485 1485 1485 1486 1489 1489 1486 1483 1484 1483 1477 1471 1469 1469 1468 1468 1468 1469 1470 1472 1473 1473 1473 1473 1473 1473 1472 1471 1470 1468 1466 1464 1462 1460 1459 1458 1457 1456 1455 1454 1454
1485 1486 1480 1481 1482 1484 1485 1488 1488 1486 1483 1483 1481 1475 1467 1464 1463 1462 1463 1463 1464 1466 1468 1469 1469 1470 1469 1469 1469 1468 1467 1466 1465 1463 1461 1459 1457 1455 1453 1452 1451 1450 1449 1449
1480 1479 1476 1479 1481 1483 1484 1486 1485 1486 1484 1483 1483 1474 1465 1460 1459 1459 1459 1459 1461 1462 1464 1465 1466 1466 1466 1466 1465 1465 1464 1462 1461 1460 1457 1455 1453 1450 1449 1447 1446 1445 1444 1444
1478 1476 1476 1478 1479 1481 1484 1481 1482 1484 1489 1492 1488 1488 1466 1461 1459 1457 1456 1456 1457 1459 1461 1462 1462 1463 1462 1462 1462 1461 1460 1458 1457 1455 1453 1450 1448 1445 1444 1442 1441 1440 1439 1438
1475 1474 1475 1476 1476 1478 1481 1480 1483 1485 1490 1495 1491 1493 1470 1462 1459 1455 1453 1453 1454 1456 1457 1458 1459 1459 1459 1459 1458 1457 1455 1454 1452 1450 1448 1446 1443 1441 1439 1437 1435 1434 1433 1432
1473 1472 1472 1473 1475 1476 1479 1483 1487 1493 1496 1495 1486 1491 1472 1462 1455 1451 1450 1450 1451 1453 1454 1456 1456 1456 1455 1455 1453 1452 1450 1449 1447 1445 1443 1441 1439 1436 1434 1432 1430 1428 1427 1426
1474 1472 1471 1472 1475 1477 1480 1488 1496 1495 1502 1493 1482 1484 1468 1451 1447 1446 1446 1447 1448 1450 1451 1452 1452 1452 1451 1450 1449 1447 1446 1444 1442 1440 1438 1436 1434 1432 1429 1427 1424 1422 1421 1419
1476 1475 1471 1470 1472 1476 1479 1482 1491 1492 1494 1488 1481 1479 1458 1445 1442 1442 1443 1444 1446 1447 1448 1448 1448 1448 1447 1446 1444 1442 1440 1438 1437 1435 1432 1431 1429 1426 1424 1422 1419 1417 1415 1413
1471 1472 1469 1469 1469 1472 1478 1483 1483 1494 1498 1495 1483 1472 1455 1442 1441 1440 1441 1442 1443 1444 1444 1444 1444 1443 1442 1441 1439 1438 1436 1433 1431 1429 1427 1425 1423 1420 1418 1416 1414 1411 1409 1407
1464 1472 1470 1470 1470 1472 1473 1478 1488 1492 1493 1487 1477 1472 1459 1444 1442 1441 1440 1440 1440 1441 1441 1440 1440 1439 1438 1436 1434 1433 1431 1429 1426 1424 1422 1419 1417 1415 1412 1409 1407 1405 1403 1401
1462 1470 1473 1472 1472 1472 1475 1478 1480 1489 1490 1488 1482 1464 1444 1441 1438 1438 1437 1437 1437 1437 1437 1436 1435 1434 1433 1431 1429 1428 1426 1423 1421 1419 1416 1414 1411 1409 1406 1403 1401 1398 1396 1395
1460 1469 1476 1472 1469 1468 1469 1471 1478 1483 1486 1488 1485 1462 1436 1435 1434 1434 1435 1435 1435 1434 1433 1432 1431 1429 1428 1426 1424 1423 1421 1418 1416 1414 1411 1408 1406 1403 1400 1397 1395 1392 1390 1388
1456 1467 1473 1470 1473 1471 1470 1469 1471 1475 1481 1487 1483 1456 1434 1433 1433 1433 1433 1432 1432 1431 1430 1428 1427 1425 1424 1422 1420 1418 1416 1414 1411 1409 1406 1403 1400 1397 1394 1391 1389 1386 1384 1381
1451 1460 1461 1458 1456 1462 1467 1466 1467 1472 1477 1477 1465 1448 1436 1434 1433 1432 1431 1430 1429 1428 1427 1425 1423 1422 1420 1418 1416 1414 1412 1409 1407 1404 1401 1398 1394 1391 1388 1385 1383 1380 1377 1375
1449 1455 1456 1453 1452 1456 1456 1457 1460 1462 1460 1460 1448 1444 1432 1430 1430 1429 1428 1427 1426 1425 1423 1421 1420 1418 1416 1414 1412 1410 1407 1405 1402 1399 1396 1393 1390 1386 1383 1380 1377 1374 1372 1369
1450 1453 1454 1453 1451 1452 1452 1449 1450 1451 1450 1448 1443 1436 1426 1426 1427 1425 1424 1424 1422 1420 1419 1417 1416 1414 1412 1411 1408 1406 1403 1401 1398 1395 1392 1389 1385 1382 1378 1375 1372 1369 1366 1364
1450 1453 1455 1453 1450 1450 1448 1437 1439 1441 1438 1437 1435 1425 1422 1423 1422 1420 1420 1419 1418 1416 1415 1413 1412 1411 1409 1407 1404 1402 1399 1396 1393 1391 1388 1385 1381 1377 1374 1371 1367 1364 1361 1359
1446 1450 1454 1453 1453 1447 1427 1422 1425 1427 1425 1426 1422 1418 1417 1417 1416 1415 1415 1415 1413 1412 1411 1409 1408 1406 1404 1402 1400 1397 1395 1392 1389 1386 1383 1380 1377 1373 1370 1366 1363 1360 1357 1354
1437 1444 1449 1451 1449 1439 1426 1420 1420 1424 1421 1417 1416 1414 1413 1414 1414 1411 1411 1410 1410 1408 1407 1405 1404 1402 1399 1397 1395 1393 1390 1388 1385 1382 1379 1376 1373 1369 1365 1362 1359 1356 1352 1350
1435 1438 1443 1444 1442 1434 1418 1414 1413 1418 1420 1411 1411 1410 1410 1412 1415 1409 1406 1406 1405 1404 1403 1401 1399 1397 1395 1393 1391 1388 1386 1383 1381 1378 1375 1372 1369 1365 1362 1358 1355 1352 1349 1346
1433 1435 1435 1436 1435 1426 1415 1413 1413 1422 1415 1408 1407 1406 1407 1408 1408 1406 1405 1404 1403 1401 1400 1398 1395 1393 1391 1389 1387 1384 1382 1379 1377 1374 1371 1368 1365 1362 1358 1354 1351 1348 1345 1341
1425 1428 1430 1431 1430 1422 1411 1412 1415 1411 1407 1406 1404 1404 1404 1404 1403 1403 1403 1402 1400 1399 1397 1394 1392 1389 1388 1386 1383 1380 1378 1376 1373 1370 1367 1364 1361 1358 1354 1350 1347 1344 1341 1337
1420 1418 1419 1419 1415 1409 1407 1406 1406 1405 1405 1404 1403 1403 1403 1402 1402 1401 1401 1399 1398 1396 1394 1392 1389 1387 1385 1383 1380 1377 1375 1373 1370 1367 1364 1361 1357 1354 1351 1347 1343 1340 1337 1334
1415 1413 1415 1415 1409 1405 1404 1403 1403 1403 1403 1402 1402 1402 1401 1401 1400 1399 1398 1397 1395 1393 1391 1389 1387 1384 1381 1380 1377 1375 1372 1370 1366 1363 1360 1357 1353 1350 1346 1343 1340 1337 1334 1331
1408 1410 1411 1410 1405 1403 1401 1401 1401 1401 1400 1400 1400 1400 1400 1399 1398 1398 1396 1394 1392 1390 1388 1386 1383 1381 1378 1376 1374 1372 1369 1366 1363 1359 1356 1353 1350 1346 1343 1340 1337 1334 1332 1330
1402 1404 1405 1402 1399 1400 1398 1398 1398 1398 1398 1398 1398 1397 1397 1397 1396 1395 1393 1392 1390 1388 1385 1383 1380 1378 1375 1373 1371 1368 1366 1363 1360 1356 1353 1350 1347 1343 1340 1337 1334 1332 1330 1327